Regional Weather Roundup
Issued by NWS

Home | Current Version | Previous Version | Text Only | Print | Product List | Glossary Off
Versions: 1 2 3 4 5 6 7 8 9 10 11 12 13 14 15 16 17 18 19 20 21 22 23 24 25 26 27 28

000
ASUS45 KSLC 301310
RWRUT

UTAH REGIONAL WEATHER ROUNDUP
NATIONAL WEATHER SERVICE SALT LAKE CITY UT
700 AM MDT TUE AUG 30 2016

UTZ001>011-023>025-301400-

NORTHERN UTAH

CITY           SKY/WX    TMP DP  RH WIND       PRES   REMARKS
BRIGHAM CITY     N/A     55  40  57 NW3       30.16R
HILL AFB       CLEAR     64  31  29 E18       30.17R
LOGAN          CLEAR     46  39  76 W3        30.18S
OGDEN          PTCLDY    65  32  29 S9        30.14S
PROVO AIRPORT  PTCLDY   N/A N/A N/A VRB5      30.17
SALT LAKE CITY CLEAR     68  40  35 SE6       30.13R
VERNAL         CLEAR     52  39  61 CALM      30.29R
WENDOVER       MOCLDY    63  34  34 CALM      30.15R
HEBER CITY     CLEAR     43  36  75 CALM      30.28S
WEST JORDAN    CLEAR     63  35  34 S5        30.17R

$$

UTZ012>022-026-027-301400-

SOUTHERN/CENTRAL UTAH

CITY           SKY/WX    TMP DP  RH WIND       PRES   REMARKS
BLANDING       CLEAR     53  42  67 NE3       30.39R
BRYCE CANYON   PTCLDY    44  38  79 W10       30.41R
CEDAR CITY     CLEAR     54  36  50 NE5       30.23S
DELTA          CLEAR     54  32  43 E6        30.17R
MILFORD        NOT AVBL
MOAB/CYNLANDS  CLEAR     65  42  43 SE8       30.21R
PRICE          CLEAR     58  34  40 N9        30.30S
ST GEORGE      SUNNY     70  45  40 S7        30.08R

$$

REGIONAL REPORTS     COLORADO/ARIZONA

CITY           SKY/WX    TMP DP  RH WIND       PRES   REMARKS
CRAIG, CO      CLEAR     47  38  71 SE5       30.38R
GRAND JUNCTION CLEAR     59  43  55 E13       30.28R
RIFLE          CLEAR     48  43  82 SE3       30.34S
MONTROSE       CLEAR     48  43  82 SE5       30.36R
CORTEZ         CLEAR     50  46  86 CALM      30.33R
PAGE, AZ       CLEAR     65  41  41 CALM      30.16S
GRAND CANYON   CLEAR     47  42  83 NE5       30.32S
KINGMAN        CLEAR     70  47  43 SE12      30.05S
FLAGSTAFF      CLEAR     44  42  93 CALM      30.34S

$$

REGIONAL REPORTS    NEVADA/IDAHO/WYOMING

CITY           SKY/WX    TMP DP  RH WIND       PRES   REMARKS
LAS VEGAS, NV  PTCLDY    81  36  19 SW3       29.93R
ELY            PTCLDY    48  21  34 S8        30.28R
ELKO           PTCLDY    52  27  38 E6        30.17S
POCATELLO, ID  CLOUDY    47  38  71 CALM      30.16F
BURLEY         PTCLDY    50  42  74 E3        30.10S
EVANSTON, WY   CLOUDY    53  27  36 E8        30.38R
ROCK SPRINGS   CLOUDY    52  34  50 NE6       30.39R

$$




USA.gov is the U.S. government's official web portal to all federal, state and local government web resources and services.